User: anonymous
Location: Myra
(43.4160°N, 88.0960°W)
Time: 09:45:01
(UTC-05:00)
Language:

SL-8 R/B - Orbit

View from above orbital plane
View from above orbital plane
View from above satellite
View from above satellite

Ground track
Ground track

The orbit data is extracted from the following two-line orbital elements,

1 33066U 08031G   14112.46640022  .00000621  00000-0  13838-3 0  7626
2 33066 048.4434 095.1378 0008360 289.1390 213.7514 14.68762434313408
Epoch (UTC): 22 April 2014 11:11:36
Eccentricity: 0.0008360
inclination: 48.4434°
perigee height: 659 km
apogee height: 671 km
right ascension of ascending node: 95.1378°
argument of perigee: 289.1390°
revolutions per day: 14.68762434
mean anomaly at epoch: 213.7514°
orbit number at epoch: 31340

The dashed part of the orbit path shows where the satellite is in the earth's shadow,  

DLR